This is the latest recevied weather packets stored in our database for station/object N3LF. If no packets are shown the sender has not sent any weather packets the latest 10 day(s).
| Time | Temp. | Humidity | Pressure | Rain* | Wind** | Luminosity | Snow |
|---|---|---|---|---|---|---|---|
| 1788137589 | 82° F | 83% | 764.9 mmHg | 0 in | - | 0 W/m² | - |
| 1788137284 | 82° F | 83% | 765 mmHg | 0 in | - | 0 W/m² | - |
| 1788136980 | 82° F | 82% | 764.9 mmHg | 0 in | - | 0 W/m² | - |
| 1788136676 | 82° F | 81% | 765 mmHg | 0 in | - | 0 W/m² | - |
| 1788136372 | 83° F | 80% | 764.9 mmHg | 0 in | - | 1 W/m² | - |
| 1788136071 | 83° F | 80% | 764.8 mmHg | 0 in | - | 1 W/m² | - |
| 1788135770 | 84° F | 79% | 765 mmHg | 0 in | - | 2 W/m² | - |
| 1788135467 | 84° F | 77% | 765 mmHg | 0 in | - | 4 W/m² | - |
| 1788135161 | 85° F | 77% | 764.9 mmHg | 0 in | - | 7 W/m² | - |
| 1788134859 | 86° F | 75% | 765 mmHg | 0 in | - | 10 W/m² | - |
| 1788134558 | 86° F | 74% | 765.1 mmHg | 0 in | - | 14 W/m² | - |
| 1788134257 | 87° F | 72% | 765 mmHg | 0 in | - | 18 W/m² | - |
| 1788133952 | 88° F | 70% | 765.1 mmHg | 0 in | - | 22 W/m² | - |
| 1788133647 | 89° F | 67% | 765 mmHg | 0 in | - | 25 W/m² | - |
| 1788133343 | 90° F | 66% | 765.1 mmHg | 0 in | - | 29 W/m² | - |
| 1788133039 | 90° F | 64% | 765.1 mmHg | 0 in | - | 33 W/m² | - |
| 1788132734 | 91° F | 63% | 765.1 mmHg | 0 in | - | 41 W/m² | - |
| 1788132429 | 91° F | 61% | 765 mmHg | 0 in | - | 47 W/m² | - |
| 1788132125 | 92° F | 61% | 765.1 mmHg | 0 in | - | 52 W/m² | - |
| 1788131822 | 91° F | 60% | 764.9 mmHg | 0 in | - | 59 W/m² | - |
| 1788131521 | 91° F | 60% | 764.9 mmHg | 0 in | - | 69 W/m² | - |
| 1788131216 | 92° F | 62% | 765 mmHg | 0 in | - | 77 W/m² | - |
| 1788130911 | 92° F | 60% | 765 mmHg | 0 in | - | 86 W/m² | - |
| 1788130606 | 92° F | 61% | 764.9 mmHg | 0 in | - | 95 W/m² | - |
| 1788130306 | 91° F | 61% | 764.8 mmHg | 0 in | - | 108 W/m² | - |
* Rain latest hour (hover to see other rain measurements)
** Current wind speed in m/s (hover to see current wind gust speed)